DAL1831 LIMC-LFPG

Flight info

Callsign DAL1831
Flight time 1h 8m
Altitude 34000
Route DOGUB6TXAOSTA5W/35R AOSTA DCT ORSUD DCT MOLUS DCT UNKIR DCT GIVRI DCT TINIL
Aircraft A320/M-SDE3FGHIRWY/LB1

Departure

Time 2026-05-08 17:50
Airport Milan Malpensa International Airport (LIMC)

Arrival

Time 2026-05-08 18:59
Airport Charles de Gaulle International Airport (LFPG)
Time Latitude Longitude Altitude Speed Heading
2026-05-08 17:17 45.62705 8.71559 736 ft 0 kts 342°
2026-05-08 17:36 45.62688 8.71566 735 ft 3 kts 345°
2026-05-08 17:36 45.62668 8.71573 736 ft 3 kts 350°
2026-05-08 17:36 45.62648 8.71577 736 ft 3 kts 359°
2026-05-08 17:36 45.62629 8.71575 736 ft 3 kts 22°
2026-05-08 17:37 45.62615 8.71562 735 ft 3 kts 74°
2026-05-08 17:37 45.62614 8.71558 735 ft 0 kts 79°
2026-05-08 17:41 45.62619 8.71591 735 ft 11 kts 79°
2026-05-08 17:42 45.62633 8.71694 735 ft 10 kts 79°
2026-05-08 17:42 45.62643 8.71782 735 ft 8 kts 85°
2026-05-08 17:42 45.62637 8.71831 735 ft 7 kts 125°
2026-05-08 17:42 45.62592 8.71856 734 ft 7 kts 165°
2026-05-08 17:43 45.62540 8.71896 732 ft 14 kts 122°
2026-05-08 17:43 45.62482 8.72042 731 ft 19 kts 130°
2026-05-08 17:43 45.62357 8.72115 731 ft 21 kts 169°
2026-05-08 17:43 45.62237 8.72147 727 ft 19 kts 169°
2026-05-08 17:44 45.62111 8.72182 726 ft 17 kts 168°
2026-05-08 17:44 45.61983 8.72220 725 ft 20 kts 168°
2026-05-08 17:44 45.61848 8.72259 722 ft 21 kts 170°
2026-05-08 17:44 45.61698 8.72297 717 ft 21 kts 169°
2026-05-08 17:45 45.61568 8.72331 714 ft 20 kts 169°
2026-05-08 17:45 45.61434 8.72369 712 ft 12 kts 159°
2026-05-08 17:45 45.61375 8.72447 711 ft 12 kts 134°
2026-05-08 17:45 45.61311 8.72510 713 ft 11 kts 160°
2026-05-08 17:46 45.61235 8.72536 704 ft 11 kts 168°
2026-05-08 17:46 45.61158 8.72557 696 ft 11 kts 169°
2026-05-08 17:46 45.61094 8.72609 702 ft 10 kts 126°
2026-05-08 17:46 45.61078 8.72697 704 ft 9 kts 91°
2026-05-08 17:47 45.61091 8.72782 702 ft 11 kts 76°
2026-05-08 17:47 45.61113 8.72919 700 ft 16 kts 78°
2026-05-08 17:47 45.61135 8.73079 701 ft 17 kts 79°
2026-05-08 17:47 45.61193 8.73213 699 ft 17 kts 17°
2026-05-08 17:48 45.61314 8.73226 702 ft 18 kts 24°
2026-05-08 17:48 45.61435 8.73260 698 ft 19 kts 350°
2026-05-08 17:48 45.61565 8.73225 714 ft 19 kts 352°
2026-05-08 17:48 45.61633 8.73348 699 ft 18 kts 79°
2026-05-08 17:49 45.61597 8.73522 700 ft 20 kts 113°
2026-05-08 17:49 45.61601 8.73706 697 ft 17 kts 73°
2026-05-08 17:49 45.61649 8.73734 697 ft 0 kts 343°
2026-05-08 17:49 45.61678 8.73724 698 ft 28 kts 348°
2026-05-08 17:50 45.62136 8.73593 717 ft 102 kts 349°
2026-05-08 17:50 45.63029 8.73348 732 ft 157 kts 349°
2026-05-08 17:50 45.64190 8.73021 1053 ft 179 kts 349°
2026-05-08 17:50 45.65421 8.72701 1837 ft 187 kts 350°
2026-05-08 17:51 45.66795 8.72584 2265 ft 210 kts 360°
2026-05-08 17:51 45.68322 8.72590 2877 ft 226 kts 360°
2026-05-08 17:51 45.69912 8.72593 3698 ft 232 kts 359°
2026-05-08 17:51 45.71539 8.72500 4569 ft 235 kts 347°
2026-05-08 17:52 45.72937 8.71333 5360 ft 238 kts 307°
2026-05-08 17:52 45.73523 8.69157 6148 ft 240 kts 269°
2026-05-08 17:52 45.72667 8.64509 7802 ft 246 kts 249°
2026-05-08 17:53 45.72089 8.62188 8626 ft 249 kts 249°
2026-05-08 17:53 45.71416 8.59887 9425 ft 254 kts 239°
2026-05-08 17:53 45.70414 8.57675 9837 ft 276 kts 236°
2026-05-08 17:53 45.69334 8.55306 10301 ft 294 kts 236°
2026-05-08 17:54 45.68187 8.52745 10613 ft 318 kts 237°
2026-05-08 17:54 45.66964 8.49974 10865 ft 342 kts 237°
2026-05-08 17:54 45.65645 8.47001 11048 ft 365 kts 237°
2026-05-08 17:54 45.64244 8.43852 11240 ft 385 kts 237°
2026-05-08 17:55 45.62764 8.40611 11776 ft 392 kts 233°
2026-05-08 17:55 45.61025 8.37587 12424 ft 397 kts 230°
2026-05-08 17:55 45.59502 8.34294 13080 ft 400 kts 245°
2026-05-08 17:55 45.58710 8.30488 13708 ft 404 kts 262°
2026-05-08 17:56 45.58756 8.26525 14326 ft 408 kts 279°
2026-05-08 17:56 45.59548 8.22620 14960 ft 411 kts 288°
2026-05-08 17:56 45.60459 8.18743 15579 ft 413 kts 288°
2026-05-08 17:56 45.61374 8.14839 16156 ft 416 kts 288°
2026-05-08 17:57 45.62290 8.10904 16705 ft 418 kts 288°
2026-05-08 17:57 45.63207 8.06948 17232 ft 421 kts 288°
2026-05-08 17:57 45.64128 8.02960 17751 ft 424 kts 288°
2026-05-08 17:57 45.65049 7.98954 18225 ft 426 kts 287°
2026-05-08 17:58 45.65973 7.94922 18699 ft 428 kts 287°
2026-05-08 17:58 45.66902 7.90871 19131 ft 430 kts 287°
2026-05-08 17:58 45.67838 7.86796 19577 ft 432 kts 287°
2026-05-08 17:58 45.68779 7.82697 20009 ft 434 kts 287°
2026-05-08 17:59 45.69718 7.78583 20429 ft 436 kts 287°
2026-05-08 17:59 45.70658 7.74454 20820 ft 438 kts 287°
2026-05-08 17:59 45.71599 7.70307 21204 ft 439 kts 287°
2026-05-08 17:59 45.72541 7.66146 21572 ft 441 kts 287°
2026-05-08 18:00 45.73487 7.61961 21901 ft 442 kts 287°
2026-05-08 18:00 45.75388 7.53547 22552 ft 446 kts 287°
2026-05-08 18:00 45.76345 7.49305 22859 ft 448 kts 287°
2026-05-08 18:01 45.77303 7.45056 23146 ft 449 kts 286°
2026-05-08 18:01 45.78377 7.40849 23419 ft 452 kts 292°
2026-05-08 18:01 45.79859 7.36925 23692 ft 456 kts 301°
2026-05-08 18:01 45.81785 7.33307 23942 ft 459 kts 310°
2026-05-08 18:02 45.84135 7.30087 24183 ft 463 kts 319°
2026-05-08 18:02 45.85851 7.28261 24306 ft 466 kts 322°
2026-05-08 18:02 45.89402 7.24670 24599 ft 468 kts 322°
2026-05-08 18:02 45.92064 7.21972 24811 ft 469 kts 322°
2026-05-08 18:03 45.94730 7.19260 24991 ft 470 kts 322°
2026-05-08 18:03 45.97363 7.16571 25157 ft 471 kts 322°
2026-05-08 18:03 46.00034 7.13835 25368 ft 471 kts 322°
2026-05-08 18:03 46.02733 7.11067 25603 ft 470 kts 322°
2026-05-08 18:04 46.05355 7.08373 25835 ft 470 kts 322°
2026-05-08 18:04 46.08013 7.05641 26080 ft 469 kts 322°
2026-05-08 18:04 46.10665 7.02915 26345 ft 468 kts 321°
2026-05-08 18:04 46.13316 7.00189 26598 ft 467 kts 321°
2026-05-08 18:05 46.15957 6.97469 26844 ft 466 kts 321°
2026-05-08 18:05 46.18623 6.94721 27069 ft 465 kts 321°
2026-05-08 18:05 46.21214 6.92049 27312 ft 464 kts 321°
2026-05-08 18:05 46.23834 6.89343 27589 ft 462 kts 321°
2026-05-08 18:06 46.26477 6.86606 27881 ft 461 kts 321°
2026-05-08 18:06 46.29075 6.83906 28184 ft 459 kts 321°
2026-05-08 18:06 46.31633 6.81245 28486 ft 457 kts 321°
2026-05-08 18:06 46.34211 6.78562 28776 ft 456 kts 321°
2026-05-08 18:07 46.36779 6.75886 29068 ft 454 kts 321°
2026-05-08 18:07 46.39338 6.73222 29352 ft 452 kts 321°
2026-05-08 18:07 46.41856 6.70525 29643 ft 448 kts 317°
2026-05-08 18:07 46.44090 6.67420 30039 ft 440 kts 309°
2026-05-08 18:08 46.45930 6.63960 30516 ft 430 kts 302°
2026-05-08 18:08 46.47442 6.60256 30915 ft 424 kts 298°
2026-05-08 18:08 46.48900 6.56551 31227 ft 422 kts 298°
2026-05-08 18:08 46.50359 6.52854 31521 ft 420 kts 298°
2026-05-08 18:09 46.51810 6.49181 31794 ft 419 kts 298°
2026-05-08 18:09 46.53256 6.45518 32061 ft 418 kts 298°
2026-05-08 18:09 46.54696 6.41867 32326 ft 416 kts 298°
2026-05-08 18:09 46.56130 6.38223 32586 ft 415 kts 298°
2026-05-08 18:10 46.57563 6.34577 32848 ft 414 kts 298°
2026-05-08 18:10 46.58994 6.30934 33131 ft 412 kts 298°
2026-05-08 18:10 46.60410 6.27313 33407 ft 411 kts 297°
2026-05-08 18:10 46.61812 6.23717 33699 ft 410 kts 297°
2026-05-08 18:11 46.63198 6.20166 33943 ft 409 kts 297°
2026-05-08 18:11 46.64600 6.16570 34016 ft 409 kts 297°
2026-05-08 18:11 46.67410 6.09351 34038 ft 410 kts 297°
2026-05-08 18:12 46.70214 6.02117 34038 ft 410 kts 297°
2026-05-08 18:12 46.73018 5.94872 34031 ft 411 kts 297°
2026-05-08 18:13 46.75828 5.87609 34025 ft 411 kts 297°
2026-05-08 18:13 46.78630 5.80337 34024 ft 411 kts 297°
2026-05-08 18:14 46.81933 5.73513 34022 ft 417 kts 311°
2026-05-08 18:14 46.86699 5.68578 34019 ft 426 kts 326°
2026-05-08 18:15 46.91911 5.64422 34011 ft 426 kts 326°
2026-05-08 18:15 46.97112 5.60242 34008 ft 426 kts 326°
2026-05-08 18:16 47.02310 5.56047 34005 ft 427 kts 326°
2026-05-08 18:16 47.07519 5.51835 34002 ft 427 kts 326°
2026-05-08 18:17 47.12726 5.47616 34000 ft 428 kts 326°
2026-05-08 18:17 47.17936 5.43391 34002 ft 428 kts 326°
2026-05-08 18:18 47.23142 5.39157 34002 ft 427 kts 326°
2026-05-08 18:18 47.28314 5.34944 34002 ft 428 kts 326°
2026-05-08 18:19 47.33559 5.30668 34009 ft 428 kts 326°
2026-05-08 18:19 47.38731 5.26453 34010 ft 428 kts 326°
2026-05-08 18:20 47.43940 5.22178 33687 ft 428 kts 326°
2026-05-08 18:20 47.46536 5.20039 33435 ft 428 kts 326°
2026-05-08 18:20 47.49133 5.17902 33188 ft 428 kts 326°
2026-05-08 18:21 47.51735 5.15759 32936 ft 428 kts 326°
2026-05-08 18:21 47.54340 5.13611 32685 ft 429 kts 326°
2026-05-08 18:21 47.56948 5.11463 32435 ft 429 kts 326°
2026-05-08 18:21 47.59463 5.09127 31930 ft 425 kts 320°
2026-05-08 18:22 47.61759 5.06359 30795 ft 426 kts 316°
2026-05-08 18:22 47.64008 5.03526 29681 ft 427 kts 316°
2026-05-08 18:22 47.66271 5.00656 28644 ft 428 kts 316°
2026-05-08 18:22 47.68526 4.97795 27960 ft 418 kts 316°
2026-05-08 18:23 47.70684 4.95070 27559 ft 399 kts 316°
2026-05-08 18:23 47.72775 4.92438 27291 ft 392 kts 316°
2026-05-08 18:23 47.74848 4.89826 27041 ft 389 kts 316°
2026-05-08 18:23 47.76912 4.87224 26789 ft 388 kts 316°
2026-05-08 18:24 47.78963 4.84630 26540 ft 387 kts 316°
2026-05-08 18:24 47.81007 4.82039 26288 ft 386 kts 316°
2026-05-08 18:24 47.83047 4.79448 26045 ft 385 kts 316°
2026-05-08 18:24 47.85076 4.76865 25701 ft 384 kts 316°
2026-05-08 18:25 47.87106 4.74276 25291 ft 382 kts 316°
2026-05-08 18:25 47.89119 4.71704 24879 ft 381 kts 316°
2026-05-08 18:25 47.91135 4.69131 24470 ft 381 kts 316°
2026-05-08 18:25 47.93146 4.66568 24060 ft 380 kts 316°
2026-05-08 18:26 47.95146 4.64015 23657 ft 378 kts 316°
2026-05-08 18:26 47.97138 4.61467 23249 ft 377 kts 316°
2026-05-08 18:26 47.99122 4.58923 22849 ft 375 kts 316°
2026-05-08 18:26 48.00424 4.57251 22586 ft 373 kts 316°
2026-05-08 18:27 48.02396 4.54718 22184 ft 372 kts 316°
2026-05-08 18:27 48.03719 4.53019 21923 ft 371 kts 316°
2026-05-08 18:27 48.06298 4.49706 21390 ft 368 kts 316°
2026-05-08 18:27 48.08233 4.47214 21004 ft 366 kts 316°
2026-05-08 18:28 48.10159 4.44731 20613 ft 365 kts 316°
2026-05-08 18:28 48.12078 4.42255 20219 ft 363 kts 316°
2026-05-08 18:28 48.13960 4.39819 19837 ft 362 kts 316°
2026-05-08 18:28 48.15890 4.37321 19442 ft 361 kts 316°
2026-05-08 18:29 48.17784 4.34872 19056 ft 359 kts 316°
2026-05-08 18:29 48.19671 4.32430 18673 ft 358 kts 316°
2026-05-08 18:29 48.21553 4.29989 18284 ft 357 kts 316°
2026-05-08 18:29 48.23426 4.27555 17906 ft 356 kts 316°
2026-05-08 18:30 48.25296 4.25123 17526 ft 355 kts 316°
2026-05-08 18:30 48.27006 4.22493 17147 ft 350 kts 306°
2026-05-08 18:30 48.28542 4.19682 16781 ft 349 kts 307°
2026-05-08 18:30 48.30086 4.16871 16425 ft 346 kts 307°
2026-05-08 18:31 48.31593 4.14129 16288 ft 334 kts 307°
2026-05-08 18:31 48.33048 4.11477 16160 ft 323 kts 307°
2026-05-08 18:31 48.34458 4.08909 15983 ft 315 kts 307°
2026-05-08 18:31 48.35837 4.06388 15762 ft 310 kts 306°
2026-05-08 18:32 48.37203 4.03886 15505 ft 308 kts 306°
2026-05-08 18:32 48.38560 4.01400 15224 ft 307 kts 307°
2026-05-08 18:32 48.39912 3.98929 15035 ft 306 kts 307°
2026-05-08 18:32 48.41263 3.96457 15021 ft 306 kts 307°
2026-05-08 18:33 48.42615 3.93980 15026 ft 306 kts 307°
2026-05-08 18:33 48.43966 3.91501 15033 ft 306 kts 307°
2026-05-08 18:33 48.45315 3.89018 15036 ft 306 kts 307°
2026-05-08 18:33 48.46666 3.86529 15036 ft 306 kts 307°
2026-05-08 18:34 48.48014 3.84048 15035 ft 306 kts 307°
2026-05-08 18:34 48.49364 3.81561 15036 ft 306 kts 307°
2026-05-08 18:34 48.50713 3.79074 15037 ft 306 kts 307°
2026-05-08 18:34 48.52044 3.76615 15034 ft 306 kts 307°
2026-05-08 18:35 48.53389 3.74125 15034 ft 306 kts 307°
2026-05-08 18:35 48.54613 3.71515 15037 ft 305 kts 300°
2026-05-08 18:35 48.55766 3.68821 15048 ft 305 kts 301°
2026-05-08 18:35 48.56938 3.66091 15054 ft 305 kts 301°
2026-05-08 18:36 48.58077 3.63439 15035 ft 305 kts 301°
2026-05-08 18:36 48.59233 3.60748 15035 ft 305 kts 301°
2026-05-08 18:36 48.60391 3.58049 15052 ft 312 kts 301°
2026-05-08 18:36 48.61615 3.55158 15047 ft 342 kts 300°
2026-05-08 18:37 48.62911 3.52092 15031 ft 340 kts 301°
2026-05-08 18:37 48.64162 3.49170 15040 ft 323 kts 301°
2026-05-08 18:37 48.65358 3.46390 15051 ft 310 kts 301°
2026-05-08 18:37 48.66525 3.43673 15059 ft 307 kts 301°
2026-05-08 18:38 48.67682 3.40968 15053 ft 306 kts 301°
2026-05-08 18:38 48.68835 3.38266 15050 ft 306 kts 301°
2026-05-08 18:38 48.69990 3.35558 14902 ft 306 kts 301°
2026-05-08 18:38 48.71140 3.32858 14652 ft 304 kts 301°
2026-05-08 18:39 48.72286 3.30171 14401 ft 303 kts 301°
2026-05-08 18:39 48.73429 3.27484 14151 ft 302 kts 301°
2026-05-08 18:39 48.74558 3.24825 13902 ft 302 kts 301°
2026-05-08 18:39 48.75692 3.22149 13651 ft 301 kts 301°
2026-05-08 18:40 48.76828 3.19474 13399 ft 300 kts 301°
2026-05-08 18:40 48.77956 3.16819 13154 ft 299 kts 301°
2026-05-08 18:40 48.79077 3.14172 13033 ft 298 kts 301°
2026-05-08 18:40 48.80198 3.11518 13045 ft 299 kts 301°
2026-05-08 18:41 48.81301 3.08901 13046 ft 299 kts 301°
2026-05-08 18:41 48.82421 3.06245 13047 ft 299 kts 301°
2026-05-08 18:41 48.83541 3.03587 13048 ft 299 kts 301°
2026-05-08 18:41 48.84728 3.00996 13050 ft 300 kts 307°
2026-05-08 18:42 48.86131 2.98630 13046 ft 301 kts 310°
2026-05-08 18:42 48.87548 2.96292 13047 ft 301 kts 310°
2026-05-08 18:42 48.88961 2.93951 13047 ft 301 kts 310°
2026-05-08 18:42 48.90375 2.91602 13047 ft 301 kts 310°
2026-05-08 18:43 48.91786 2.89252 13046 ft 301 kts 310°
2026-05-08 18:43 48.93202 2.86889 13049 ft 310 kts 310°
2026-05-08 18:43 48.94699 2.84376 13033 ft 320 kts 310°
2026-05-08 18:43 48.96158 2.81924 13047 ft 306 kts 310°
2026-05-08 18:44 48.97449 2.79415 13053 ft 299 kts 295°
2026-05-08 18:44 48.98011 2.76448 12904 ft 291 kts 271°
2026-05-08 18:44 48.97915 2.73390 12538 ft 289 kts 263°
2026-05-08 18:44 48.97697 2.70356 12181 ft 288 kts 262°
2026-05-08 18:45 48.97471 2.67372 11816 ft 287 kts 262°
2026-05-08 18:45 48.97243 2.64354 11453 ft 286 kts 262°
2026-05-08 18:45 48.96890 2.61389 11082 ft 284 kts 254°
2026-05-08 18:45 48.96347 2.58510 10696 ft 283 kts 252°
2026-05-08 18:46 48.95779 2.55628 10296 ft 283 kts 252°
2026-05-08 18:46 48.95216 2.52764 9911 ft 283 kts 252°
2026-05-08 18:46 48.94652 2.49904 9505 ft 282 kts 252°
2026-05-08 18:46 48.94092 2.47045 9101 ft 281 kts 252°
2026-05-08 18:47 48.93536 2.44196 8702 ft 281 kts 252°
2026-05-08 18:47 48.92984 2.41355 8295 ft 280 kts 252°
2026-05-08 18:47 48.92428 2.38518 7886 ft 279 kts 252°
2026-05-08 18:47 48.91874 2.35691 7499 ft 277 kts 252°
2026-05-08 18:48 48.91327 2.32918 7002 ft 274 kts 252°
2026-05-08 18:48 48.90765 2.30073 5878 ft 288 kts 252°
2026-05-08 18:48 48.90185 2.27175 5298 ft 280 kts 253°
2026-05-08 18:48 48.89934 2.24379 5116 ft 256 kts 270°
2026-05-08 18:49 48.89967 2.21765 5010 ft 244 kts 272°
2026-05-08 18:49 48.90023 2.19219 5001 ft 243 kts 272°
2026-05-08 18:49 48.90082 2.16705 5008 ft 229 kts 272°
2026-05-08 18:49 48.90138 2.14268 5024 ft 232 kts 272°
2026-05-08 18:50 48.90194 2.11846 5020 ft 233 kts 272°
2026-05-08 18:50 48.90251 2.09386 5011 ft 232 kts 272°
2026-05-08 18:50 48.90458 2.06965 5001 ft 231 kts 292°
2026-05-08 18:50 48.91398 2.05039 5007 ft 229 kts 326°
2026-05-08 18:51 48.92859 2.04197 5010 ft 226 kts 355°
2026-05-08 18:51 48.94456 2.04202 5007 ft 226 kts 11°
2026-05-08 18:51 48.95876 2.05053 5006 ft 223 kts 36°
2026-05-08 18:51 48.96809 2.06865 5003 ft 220 kts 75°
2026-05-08 18:52 48.96799 2.09140 5012 ft 212 kts 99°
2026-05-08 18:52 48.96742 2.11291 5001 ft 197 kts 85°
2026-05-08 18:52 48.96867 2.13328 5002 ft 192 kts 85°
2026-05-08 18:52 48.96991 2.15339 5005 ft 191 kts 85°
2026-05-08 18:53 48.97109 2.17354 5006 ft 190 kts 85°
2026-05-08 18:53 48.97224 2.19352 5038 ft 190 kts 85°
2026-05-08 18:53 48.97339 2.21362 4824 ft 190 kts 85°
2026-05-08 18:53 48.97453 2.23358 4569 ft 188 kts 85°
2026-05-08 18:54 48.97566 2.25340 4323 ft 187 kts 84°
2026-05-08 18:54 48.97677 2.27311 4081 ft 186 kts 84°
2026-05-08 18:54 48.97787 2.29267 3832 ft 186 kts 84°
2026-05-08 18:54 48.97897 2.31219 3581 ft 184 kts 84°
2026-05-08 18:55 48.98113 2.35081 3100 ft 182 kts 84°
2026-05-08 18:55 48.98219 2.36995 2867 ft 181 kts 83°
2026-05-08 18:55 48.98326 2.38912 2623 ft 181 kts 83°
2026-05-08 18:56 48.98431 2.40814 2384 ft 181 kts 83°
2026-05-08 18:56 48.98534 2.42696 2150 ft 173 kts 83°
2026-05-08 18:56 48.98629 2.44430 1929 ft 158 kts 83°
2026-05-08 18:56 48.98718 2.46037 1723 ft 147 kts 83°
2026-05-08 18:57 48.98800 2.47545 1529 ft 139 kts 83°
2026-05-08 18:57 48.98853 2.48505 1412 ft 136 kts 83°
2026-05-08 18:57 48.98957 2.50401 1175 ft 133 kts 83°
2026-05-08 18:57 48.99032 2.51782 1002 ft 132 kts 83°
2026-05-08 18:58 48.99108 2.53191 829 ft 132 kts 83°
2026-05-08 18:58 48.99184 2.54582 625 ft 131 kts 85°
2026-05-08 18:58 48.99255 2.55970 467 ft 132 kts 83°
2026-05-08 18:58 48.99323 2.57346 364 ft 126 kts 84°
2026-05-08 18:59 48.99392 2.58434 353 ft 53 kts 85°
2026-05-08 18:59 48.99413 2.58832 360 ft 35 kts 85°
2026-05-08 18:59 48.99446 2.59185 354 ft 33 kts 72°
2026-05-08 18:59 48.99538 2.59485 358 ft 30 kts 65°
2026-05-08 19:00 48.99598 2.59675 363 ft 28 kts 62°
2026-05-08 19:00 48.99664 2.59710 359 ft 9 kts 327°
2026-05-08 19:00 48.99784 2.59676 360 ft 22 kts 355°
2026-05-08 19:00 48.99928 2.59657 356 ft 17 kts 354°
2026-05-08 19:01 48.99937 2.59655 354 ft 0 kts 354°
2026-05-08 19:01 48.99939 2.59655 357 ft 0 kts 354°
2026-05-08 19:03 48.99948 2.59653 354 ft 4 kts 354°
2026-05-08 19:03 48.99997 2.59644 362 ft 0 kts 348°
2026-05-08 19:03 48.99999 2.59628 358 ft 5 kts 281°
2026-05-08 19:04 48.99996 2.59570 360 ft 5 kts 265°
2026-05-08 19:04 49.00003 2.59525 360 ft 4 kts 304°
2026-05-08 19:04 49.00037 2.59508 354 ft 6 kts
2026-05-08 19:04 49.00072 2.59552 356 ft 11 kts 60°
2026-05-08 19:05 49.00138 2.59632 360 ft 14 kts
2026-05-08 19:05 49.00243 2.59619 354 ft 16 kts 355°
2026-05-08 19:05 49.00350 2.59606 361 ft 13 kts 355°
2026-05-08 19:05 49.00447 2.59593 361 ft 15 kts 354°
2026-05-08 19:06 49.00562 2.59577 356 ft 18 kts 354°
2026-05-08 19:06 49.00695 2.59559 361 ft 21 kts 356°
2026-05-08 19:06 49.00843 2.59544 354 ft 21 kts 356°
2026-05-08 19:06 49.00970 2.59523 354 ft 16 kts 336°
2026-05-08 19:07 49.00999 2.59359 357 ft 18 kts 268°
2026-05-08 19:07 49.00987 2.59165 360 ft 19 kts 264°
2026-05-08 19:07 49.00958 2.58954 356 ft 21 kts 255°
2026-05-08 19:07 49.00941 2.58739 357 ft 20 kts 265°
2026-05-08 19:08 49.00929 2.58532 358 ft 20 kts 265°
2026-05-08 19:08 49.00918 2.58320 354 ft 19 kts 266°
2026-05-08 19:08 49.00912 2.58193 356 ft 10 kts 266°
2026-05-08 19:08 49.00907 2.58087 354 ft 10 kts 266°
2026-05-08 19:09 49.00901 2.57984 356 ft 9 kts 264°
2026-05-08 19:09 49.00896 2.57896 356 ft 8 kts 264°
2026-05-08 19:09 49.00890 2.57811 359 ft 8 kts 264°
2026-05-08 19:09 49.00885 2.57729 357 ft 12 kts 264°
2026-05-08 19:10 49.00880 2.57593 361 ft 12 kts 265°
2026-05-08 19:10 49.00875 2.57511 359 ft 12 kts 265°
2026-05-08 19:10 49.00867 2.57358 360 ft 10 kts 265°
2026-05-08 19:10 49.00863 2.57283 360 ft 13 kts 265°
2026-05-08 19:11 49.00854 2.57126 355 ft 16 kts 265°
2026-05-08 19:11 49.00845 2.56938 359 ft 19 kts 266°
2026-05-08 19:11 49.00834 2.56737 357 ft 20 kts 265°
2026-05-08 19:11 49.00819 2.56531 361 ft 12 kts 253°
2026-05-08 19:12 49.00783 2.56461 362 ft 5 kts 212°
2026-05-08 19:12 49.00768 2.56454 356 ft 0 kts 194°
2026-05-08 19:14 49.00749 2.56450 361 ft 5 kts 185°
2026-05-08 19:14 49.00730 2.56451 354 ft 0 kts 176°
2026-05-08 19:14 49.00726 2.56451 356 ft 3 kts 176°
2026-05-08 19:15 49.00655 2.56439 358 ft 15 kts 202°
2026-05-08 19:15 49.00618 2.56306 356 ft 13 kts 264°
2026-05-08 19:15 49.00611 2.56175 358 ft 11 kts 265°
2026-05-08 19:15 49.00614 2.56069 357 ft 9 kts 314°
2026-05-08 19:16 49.00670 2.56052 357 ft 8 kts 357°
2026-05-08 19:16 49.00683 2.56051 355 ft 0 kts 358°